Weather History for Tacoma Narrows, WA

Change the Weather History Date:

Monday, January 16, 2012

  Actual Average Record
Temperature  
Mean Temperature 32 °F -  
Max Temperature 35 °F 44 °F 55 °F (2011)
Min Temperature 30 °F 37 °F 28 °F (2013)
Degree Days  
Heating Degree Days 32    
Moisture  
Dew Point 30 °F    
Average Humidity 91    
Maximum Humidity 96    
Minimum Humidity 81    
Precipitation  
Precipitation 0.10 in - - ()
Sea Level Pressure  
Sea Level Pressure 30.08 in    
Wind  
Wind Speed 9 mph (South)    
Max Wind Speed 21 mph    
Max Gust Speed 31 mph    
Visibility 7 miles    
Events Rain , Snow    
Averages and records for this station are not official NWS values.
T = Trace of Precipitation, MM = Missing Value Source: NWS Daily Summary

Daily Weather History Graph

Daily Weather History Graph

Search for Another Location

Airport:

Trip Planner

Search our weather history database for the weather conditions in past years. The results will help you decide how hot, cold, wet, or windy it might be!

Date:

Astronomy

Jan. 16, 2012 Rise Set
Actual Time 7:52 AM PST 4:48 PM PST
Civil Twilight 7:17 AM PST 5:22 PM PST
Nautical Twilight 6:39 AM PST 6:00 PM PST
Astronomical Twilight 6:03 AM PST 6:37 PM PST
Moon 12:59 AM PST (1/16) 11:11 AM PST (1/16)
Length of Visible Light 10h 04m
Length of Day
8h 56m
Last Quarter, 45% of the Moon is Illuminated
Jan 16
Last Quarter
Jan 22
New
Jan 30
First Quarter
Feb 7
Full
Feb 14
Last Quarter

Hourly Weather History & Observations

Time (PST) Temp. Windchill Dew Point Humidity Pressure Visibility Wind Dir Wind Speed Gust Speed Precip Events Conditions
12:04 AM 32.0 °F - 28.4 °F 87% 30.10 in 10.0 mi Calm Calm - N/A   Overcast
12:17 AM 32.0 °F 28.7 °F 30.2 °F 93% 30.10 in 10.0 mi ENE 3.5 mph - N/A   Overcast
12:49 AM 32.0 °F - 30.2 °F 93% 30.11 in 10.0 mi Calm Calm - N/A   Overcast
12:53 AM 32.0 °F - 30.9 °F 96% 30.12 in 10.0 mi Calm Calm - N/A   Overcast
1:20 AM 32.0 °F 28.7 °F 30.2 °F 93% 30.11 in 10.0 mi SSW 3.5 mph - N/A   Overcast
1:34 AM 32.0 °F 27.5 °F 30.2 °F 93% 30.12 in 10.0 mi SSW 4.6 mph - N/A   Overcast
1:43 AM 32.0 °F 28.7 °F 30.2 °F 93% 30.12 in 10.0 mi South 3.5 mph - N/A   Overcast
1:53 AM 33.1 °F 27.7 °F 30.0 °F 89% 30.14 in 10.0 mi SSW 5.8 mph - N/A   Overcast
2:40 AM 32.0 °F 24.8 °F 30.2 °F 93% 30.12 in 10.0 mi South 8.1 mph - N/A   Mostly Cloudy
2:53 AM 32.0 °F 25.6 °F 30.0 °F 92% 30.14 in 10.0 mi South 6.9 mph - N/A   Mostly Cloudy
3:53 AM 30.9 °F 22.8 °F 28.9 °F 92% 30.14 in 10.0 mi South 9.2 mph - N/A   Scattered Clouds
4:08 AM 30.2 °F 21.3 °F 28.4 °F 93% 30.12 in 10.0 mi SSW 10.4 mph - N/A   Mostly Cloudy
4:53 AM 30.0 °F 23.2 °F 28.0 °F 92% 30.12 in 10.0 mi South 6.9 mph - N/A   Mostly Cloudy
5:13 AM 30.2 °F 21.3 °F 28.4 °F 93% 30.11 in 10.0 mi South 10.4 mph - N/A   Mostly Cloudy
5:33 AM 30.2 °F 21.9 °F 28.4 °F 93% 30.11 in 10.0 mi South 9.2 mph - N/A   Overcast
5:53 AM 30.9 °F 24.3 °F 28.9 °F 92% 30.13 in 10.0 mi SSW 6.9 mph - N/A   Overcast
6:10 AM 30.2 °F 24.3 °F 28.4 °F 93% 30.12 in 9.0 mi SSW 5.8 mph - 0.00 in Snow Light Snow
6:53 AM 30.0 °F 20.5 °F 28.0 °F 92% 30.13 in 10.0 mi South 11.5 mph - 0.00 in   Mostly Cloudy
7:34 AM 30.2 °F 23.4 °F 28.4 °F 93% 30.11 in 10.0 mi SSW 6.9 mph - N/A   Overcast
7:53 AM 30.9 °F 23.5 °F 28.9 °F 92% 30.13 in 10.0 mi SSW 8.1 mph - N/A   Overcast
8:44 AM 32.0 °F 24.2 °F 28.4 °F 87% 30.11 in 9.0 mi South 9.2 mph - 0.00 in   Overcast
8:53 AM 32.0 °F 26.4 °F 28.9 °F 88% 30.13 in 10.0 mi South 5.8 mph - 0.00 in   Overcast
9:53 AM 32.0 °F 21.6 °F 28.0 °F 85% 30.13 in 10.0 mi South 15.0 mph - 0.00 in   Overcast
10:15 AM 33.8 °F 25.8 °F 28.4 °F 81% 30.11 in 10.0 mi South 10.4 mph - N/A   Overcast
10:53 AM 33.1 °F 23.0 °F 28.9 °F 85% 30.13 in 2.5 mi South 15.0 mph 21.9 mph 0.00 in Snow Light Snow
11:06 AM 32.0 °F 22.1 °F 30.2 °F 93% 30.11 in 1.5 mi South 13.8 mph 20.7 mph 0.00 in Snow Light Snow
11:10 AM 32.0 °F 21.6 °F 30.2 °F 93% 30.11 in 1.0 mi South 15.0 mph 21.9 mph 0.00 in Snow Light Snow
11:36 AM 32.0 °F 23.0 °F 30.2 °F 93% 30.10 in 0.8 mi South 11.5 mph - 0.00 in Snow Light Snow
11:53 AM 32.0 °F 22.1 °F 30.0 °F 92% 30.11 in 0.8 mi South 13.8 mph 21.9 mph 0.00 in Snow Light Snow
12:01 PM 32.0 °F 20.8 °F 30.2 °F 93% 30.09 in 0.8 mi South 17.3 mph - 0.00 in Snow Light Snow
12:11 PM 33.8 °F 23.2 °F 30.2 °F 87% 30.09 in 0.8 mi South 17.3 mph 24.2 mph 0.00 in Snow Light Snow
12:53 PM 33.8 °F 22.5 °F 30.2 °F 87% 30.07 in 3.0 mi South 19.6 mph 25.3 mph N/A   Overcast
1:53 PM 34.0 °F 23.8 °F 30.9 °F 89% 30.08 in 3.0 mi South 16.1 mph - N/A   Mostly Cloudy
2:53 PM 35.1 °F 25.5 °F 30.9 °F 85% 30.08 in 5.0 mi SSW 15.0 mph 20.7 mph N/A   Overcast
3:53 PM 34.0 °F 25.0 °F 32.0 °F 92% 30.08 in 4.0 mi South 12.7 mph - 0.00 in Snow Light Snow
4:22 PM 33.8 °F 22.8 °F 32.0 °F 93% 30.06 in 1.8 mi South 18.4 mph - 0.01 in Snow Light Snow
4:37 PM 33.8 °F 24.8 °F 32.0 °F 93% 30.06 in 2.5 mi South 12.7 mph - 0.01 in Snow Light Snow
4:44 PM 33.8 °F 24.3 °F 32.0 °F 93% 30.06 in 1.8 mi South 13.8 mph 25.3 mph 0.01 in Snow Light Snow
4:53 PM 33.1 °F 23.4 °F 32.0 °F 96% 30.07 in 1.8 mi South 13.8 mph - 0.02 in Snow Light Snow
5:53 PM 34.0 °F 23.0 °F 32.0 °F 92% 30.06 in 3.0 mi South 18.4 mph 24.2 mph 0.00 in Snow Light Snow
6:53 PM 34.0 °F 23.0 °F 32.0 °F 92% 30.04 in 5.0 mi South 18.4 mph 26.5 mph 0.00 in   Overcast
7:42 PM 33.8 °F 23.2 °F 32.0 °F 93% 30.01 in 10.0 mi South 17.3 mph 24.2 mph 0.00 in Rain Light Freezing Rain
7:53 PM 33.1 °F 22.2 °F 32.0 °F 96% 30.03 in 10.0 mi South 17.3 mph 28.8 mph 0.00 in Rain Light Freezing Rain
8:00 PM 33.8 °F 23.2 °F 32.0 °F 93% 30.01 in 3.0 mi South 17.3 mph 25.3 mph 0.00 in Snow Light Snow
8:05 PM 33.8 °F 24.3 °F 32.0 °F 93% 30.01 in 1.8 mi South 13.8 mph 25.3 mph 0.00 in Snow Light Snow
8:13 PM 33.8 °F 24.3 °F 32.0 °F 93% 30.01 in 3.0 mi South 13.8 mph 21.9 mph 0.01 in Snow Light Snow
8:53 PM 34.0 °F 23.8 °F 32.0 °F 92% 30.01 in 8.0 mi SSW 16.1 mph 29.9 mph 0.02 in Snow Light Snow
9:28 PM 33.8 °F 23.9 °F 32.0 °F 93% 29.99 in 5.0 mi South 15.0 mph - 0.01 in Snow Light Snow
9:36 PM 33.8 °F 22.5 °F 32.0 °F 93% 29.99 in 5.0 mi South 19.6 mph 25.3 mph 0.02 in Snow Light Snow
9:53 PM 34.0 °F 23.4 °F 33.1 °F 96% 30.00 in 7.0 mi South 17.3 mph 23.0 mph 0.03 in Snow Light Snow
10:53 PM 35.6 °F 25.2 °F 32.0 °F 87% 29.97 in 9.0 mi South 18.4 mph 25.3 mph N/A Rain Light Freezing Rain
11:08 PM 35.6 °F 24.5 °F 32.0 °F 87% 29.97 in 9.0 mi South 20.7 mph 27.6 mph 0.01 in Snow Light Snow
11:21 PM 33.8 °F 22.2 °F 32.0 °F 93% 29.97 in 3.0 mi South 20.7 mph 31.1 mph 0.02 in Snow Light Snow
11:38 PM 33.8 °F 24.8 °F 32.0 °F 93% 29.96 in 5.0 mi South 12.7 mph - 0.03 in Snow Light Snow
11:53 PM 34.0 °F 23.0 °F 32.0 °F 92% 29.97 in 7.0 mi South 18.4 mph 23.0 mph 0.03 in Snow Light Snow